NigeriaSat-1

operational
NORAD ID: 27941 Int'l Des: 2003-042 Owner: NSRDA Country: NG
LEOCIRCULARRETROGRADESSO

About NigeriaSat-1

Description loading...

Live Position

Loading 3D Globe...

Upcoming Passes

Altitude History

Altitude vs Time

uPlot chart will show altitude changes over time

Two-Line Element Set

1 27941U 03042C 26061.51694869 .00002070 00000-0 21758-3 0 9990
2 27941 98.0059 251.9184 0041230 280.9433 78.7146 14.89986678207946
Epoch: Mar 2, 2026 • Age: 28 hours

Current Status

Altitude 593.8 km
Velocity 7.57 km/s
Sub-Earth Point -8.71°S, 25.58°E
Launch Date Sep 27, 2003
Age 22.4 years
Type other

Technical Details

Classification Payload
Mass 80.00 kg
Dry Mass 80.00 kg
Total Mass 80.00 kg
Length 0.60 m
Diameter 0.60 m
Span 6.60 m
Shape Box + Ant
Manufacturer SSTL
Bus Type SSTL-100
Phase Status In Orbit
Owner/State NSRDA/NG

Large Constellations

Loading constellations...